Location: Ariel
(45.9570°N, 122.5700°W)
Time: 23:58:12
(UTC-07:00)

Transit 4A - Pass Details

Date: 28 July 2019
Orbit: 863 x 981 km, 66.8° (Epoch: 21 August)

Event Time Altitude Azimuth Distance (km) Brightness Sun altitude
Rises 07:31:04 0° 328° (NNW) 3,684 10.8 15.9°
Reaches altitude 10° 07:34:29 10° 345° (NNW) 2,722 10.4 16.5°
Maximum altitude 07:38:58 20° 30° (NNE) 2,085 10.5 17.3°
Drops below altitude 10° 07:43:22 10° 75° (ENE) 2,668 12.8 18.0°
Sets 07:46:40 0° 93° (E) 3,587 12.5 18.6°
